Location: �quirre
(50.4736°N, 2.2351°E)
Time: 20:53:14
(UTC+00:00)

Cosmos 2112 Rocket - Pass Details

Date: 07 August 2020
Orbit: 757 x 786 km, 74.0° (Epoch: 21 September)

Event Time Altitude Azimuth Distance (km) Brightness Sun altitude
Rises 01:51:40 0° 337° (NNW) 3,252 7.8 -18.6°
Reaches altitude 10° 01:54:05 10° 340° (NNW) 2,316 7.0 -18.4°
Maximum altitude 01:59:18 65° 62° (ENE) 842 4.4 -18.0°
Drops below altitude 10° 02:04:27 10° 145° (SE) 2,286 6.2 -17.6°
Enters shadow 02:06:31 - 148° (SSE) 3,081 6.9 -17.4°
